This is the latest recevied weather packets stored in our database for station/object KZ7I. If no packets are shown the sender has not sent any weather packets the latest 10 day(s).
| Time | Temp. | Humidity | Pressure | Rain* | Wind** | Luminosity | Snow |
|---|---|---|---|---|---|---|---|
| 1788137542 | 79° F | 92% | 766 mmHg | 0 in | - | 0 W/m² | - |
| 1788137237 | 79° F | 92% | 766 mmHg | 0 in | - | 0 W/m² | - |
| 1788136934 | 79° F | 92% | 766 mmHg | 0 in | - | 0 W/m² | - |
| 1788136629 | 79° F | 92% | 766 mmHg | 0 in | - | 0 W/m² | - |
| 1788136325 | 80° F | 91% | 766 mmHg | 0 in | - | 0 W/m² | - |
| 1788136023 | 80° F | 91% | 765.8 mmHg | 0 in | - | 0 W/m² | - |
| 1788135718 | 80° F | 91% | 765.9 mmHg | 0 in | - | 0 W/m² | - |
| 1788135415 | 80° F | 90% | 765.8 mmHg | 0 in | - | 0 W/m² | - |
| 1788135109 | 80° F | 90% | 765.7 mmHg | 0 in | - | 0 W/m² | - |
| 1788134806 | 80° F | 89% | 765.8 mmHg | 0 in | - | 0 W/m² | - |
| 1788134506 | 81° F | 89% | 765.7 mmHg | 0 in | - | 0 W/m² | - |
| 1788134205 | 81° F | 89% | 765.8 mmHg | 0 in | - | 0 W/m² | - |
| 1788133900 | 81° F | 89% | 765.9 mmHg | 0 in | - | 0 W/m² | - |
| 1788133595 | 81° F | 89% | 765.7 mmHg | 0 in | - | 0 W/m² | - |
| 1788133290 | 81° F | 88% | 765.8 mmHg | 0 in | - | 1 W/m² | - |
| 1788132986 | 82° F | 88% | 765.8 mmHg | 0 in | - | 3 W/m² | - |
| 1788132681 | 82° F | 88% | 765.7 mmHg | 0 in | - | 6 W/m² | - |
| 1788132377 | 82° F | 88% | 765.9 mmHg | 0 in | - | 14 W/m² | - |
| 1788132073 | 82° F | 87% | 765.7 mmHg | 0 in | - | 20 W/m² | - |
| 1788131769 | 82° F | 87% | 765.8 mmHg | 0 in | - | 25 W/m² | - |
| 1788131468 | 82° F | 87% | 765.7 mmHg | 0 in | - | 28 W/m² | - |
| 1788131164 | 82° F | 86% | 765.8 mmHg | 0 in | - | 30 W/m² | - |
| 1788130858 | 82° F | 86% | 766 mmHg | 0 in | - | 34 W/m² | - |
| 1788130554 | 83° F | 85% | 765.8 mmHg | 0 in | - | 36 W/m² | - |
| 1788130253 | 83° F | 85% | 765.9 mmHg | 0 in | - | 39 W/m² | - |
* Rain latest hour (hover to see other rain measurements)
** Current wind speed in m/s (hover to see current wind gust speed)